Temperature
20 19 20 19 19 19 19 20 20 20 20 20 19 19 19 19 19 19 19 18 18 18 18 18 18 18 18 18 18 18 18 18 18 18 18 18 17 17 17 17 17 16 17
20 19 20 19 19 19 19 20 20 20 20 19 19 19 19 19 19 19 19 18 18 18 18 18 18 18 18 18 18 18 18 18 18 18 18 18 17 17 17 17 17 17 17
20 19 20 19 19 19 19 19 20 20 20 19 19 19 19 19 19 19 19 18 18 18 18 18 18 18 18 18 18 18 18 18 18 18 17 17 17 17 17 17 17 17 17
20 19 19 19 19 19 19 19 19 20 19 19 19 19 19 19 19 19 19 18 18 18 18 18 18 18 18 18 18 18 18 18 18 18 18 17 17 17 17 17 17 17 17
19 19 19 19 19 19 19 19 19 19 19 19 19 19 19 19 19 18 18 18 18 18 18 18 18 18 18 18 18 18 18 18 18 17 17 17 17 17 17 17 17 17 17
19 19 19 19 19 19 19 19 19 19 19 19 19 19 19 19 18 18 18 18 18 18 18 18 18 18 18 18 18 18 18 18 17 17 17 17 17 17 17 17 17 17 17
20 19 19 19 19 19 19 19 19 19 19 19 19 19 19 19 18 18 18 18 18 18 18 18 18 18 18 18 18 18 18 18 17 17 17 17 17 17 17 17 17 17 17
20 19 18 19 19 19 19 19 19 19 19 19 19 19 19 18 18 18 18 18 18 18 18 18 18 18 18 18 18 18 18 17 17 17 17 17 17 17 17 17 17 17 17
20 19 18 18 19 19 19 19 19 19 19 19 19 19 18 18 18 18 18 18 18 18 18 18 18 18 18 18 18 18 18 18 17 17 17 17 17 17 17 17 17 17 17
19 19 18 18 18 18 18 19 19 19 19 19 19 18 18 18 18 18 18 18 18 18 18 18 18 18 18 18 18 18 18 18 18 18 18 17 18 17 17 17 17 17 17
19 19 18 18 18 18 18 18 18 18 18 18 18 18 18 17 17 17 17 18 17 17 17 17 17 17 18 18 18 18 18 17 18 18 17 17 17 17 17 17 17 17 17
18 18 18 18 18 18 18 18 18 18 18 18 17 17 17 17 17 17 17 17 17 17 17 17 17 17 17 17 17 17 17 17 18 18 17 17 17 17 17 17 17 17 17
18 18 18 18 18 18 18 18 18 18 18 17 17 17 17 17 17 17 17 17 17 17 17 17 17 17 17 17 17 17 17 17 18 18 18 17 17 17 17 17 17 17 17
18 18 18 18 18 18 18 18 18 18 17 17 17 17 17 17 17 17 17 16 16 16 16 16 16 16 16 16 16 16 16 17 17 17 17 17 17 17 17 17 17 17 17
18 18 18 18 18 18 18 18 18 17 17 17 17 17 17 17 17 16 16 16 16 16 16 16 16 16 16 16 16 16 16 16 16 17 17 17 17 17 17 17 17 17 17
18 18 18 18 18 18 18 18 18 17 17 17 17 17 17 17 16 16 16 16 16 15 15 15 15 15 16 16 16 16 16 16 16 16 16 16 17 17 17 17 17 17 17
18 18 18 18 18 18 18 18 17 17 17 17 17 17 16 16 16 16 15 15 15 15 15 15 15 15 15 15 15 15 15 15 16 16 16 16 16 16 17 16 16 16 16
18 18 18 18 18 18 18 18 17 17 17 17 16 16 16 16 16 16 15 15 15 15 15 15 15 15 15 15 15 15 15 15 15 15 16 16 16 16 16 16 16 16 16
18 18 18 18 18 18 17 17 17 17 17 16 16 16 16 16 16 15 15 15 15 14 14 14 14 14 15 14 15 15 15 15 15 15 15 15 16 16 16 16 16 16 16
18 18 18 18 18 17 17 17 17 17 16 16 16 16 15 15 15 15 14 14 14 14 14 14 13 14 14 14 15 15 15 15 15 15 15 15 15 15 16 16 16 16 16
18 18 18 18 18 17 17 17 17 16 16 16 16 16 15 15 15 15 14 14 14 14 13 13 13 14 14 14 15 15 15 15 15 14 15 15 15 15 15 15 15 15 15
18 18 18 18 18 17 17 17 17 16 16 16 16 16 15 15 15 14 14 14 14 13 13 13 13 13 14 13 14 16 16 16 14 15 14 14 15 15 15 15 15 15 15
18 18 17 18 18 17 17 17 17 17 16 16 16 15 15 15 14 14 14 14 13 13 13 13 12 12 14 13 13 15 16 17 16 15 14 14 14 14 15 14 15 15 15
18 18 18 18 18 18 18 17 17 17 16 16 16 15 15 15 14 14 14 14 13 13 13 13 13 12 13 14 13 13 13 14 15 16 15 14 14 14 14 14 14 14 14
18 18 18 18 18 18 17 17 17 17 16 16 16 15 15 15 14 14 14 13 13 13 13 13 12 12 12 13 13 13 13 13 14 15 16 15 15 14 14 14 14 14 14
18 18 18 18 18 18 18 17 17 16 16 16 16 15 15 14 14 14 14 13 13 13 13 13 12 12 12 12 12 13 13 14 14 14 15 15 15 15 14 14 14 14 14
Wind_Speed
15 18 19 16 15 16 16 16 16 16 16 15 15 14 13 12 12 11 10 10 10 10 10 10 10 10 10 9 9 9 9 9 10 10 11 11 12 13 13 12 12 15 16
18 20 20 17 16 16 16 16 16 16 15 15 14 13 12 12 11 10 10 9 9 10 10 10 10 10 10 10 9 9 9 9 9 10 10 12 12 12 10 8 8 15 15
20 21 20 17 16 16 16 16 16 15 15 14 14 13 12 11 11 10 9 9 9 10 10 10 10 10 10 10 9 9 8 8 9 8 8 10 13 11 10 10 14 15 14
20 21 20 19 17 16 16 16 15 15 14 14 13 12 11 10 10 10 9 9 9 9 9 9 9 10 9 9 8 8 8 8 7 5 5 9 11 12 10 11 13 13 13
19 20 20 20 18 17 16 15 15 14 14 13 12 12 11 10 9 9 9 8 8 8 8 9 9 8 8 8 7 7 7 6 4 4 6 7 10 11 10 11 12 12 13
18 19 21 19 18 17 16 15 15 14 13 12 11 11 10 9 8 8 8 8 8 7 7 8 7 7 7 7 6 6 5 3 6 5 6 6 10 11 10 11 11 12 12
19 18 21 19 18 17 16 15 14 13 13 12 11 10 9 8 8 7 7 7 7 6 6 7 7 6 6 5 5 4 3 2 2 5 5 6 10 10 10 10 11 11 11
18 18 20 18 17 16 16 15 14 13 12 11 10 9 8 7 6 6 6 6 5 5 5 5 5 5 5 4 4 3 2 5 3 4 4 6 10 9 9 9 10 10 11
17 16 18 18 17 15 14 14 13 12 11 10 9 8 7 7 6 5 5 4 4 4 4 4 4 3 3 3 2 2 1 4 4 3 4 6 10 8 8 9 9 10 10
15 15 15 16 16 16 15 14 12 11 10 10 9 7 7 7 6 5 6 5 3 3 3 3 2 2 2 2 1 1 2 6 5 3 3 8 10 8 9 9 9 10 10
13 12 13 14 13 13 13 14 13 11 10 10 9 8 7 6 6 6 4 4 2 2 2 2 3 3 3 5 3 3 6 6 4 2 2 10 9 9 9 10 10 10 10
15 14 12 12 12 12 11 12 10 10 10 8 7 7 5 3 2 2 7 4 3 2 3 3 3 5 7 5 7 7 6 5 5 4 4 9 8 9 10 11 11 11 11
15 13 13 11 11 11 8 9 7 7 7 7 6 5 3 3 3 2 2 4 3 3 3 4 5 4 3 2 3 4 4 5 5 4 4 7 6 9 10 11 12 12 12
14 13 12 12 10 9 8 7 7 7 6 5 6 4 4 2 2 1 1 1 1 0 0 1 1 1 2 3 4 4 4 5 5 4 2 5 4 7 10 11 12 12 13
13 13 12 11 10 9 7 6 6 5 5 5 5 4 3 3 2 2 1 1 1 1 1 1 1 1 3 3 3 3 4 4 4 5 3 5 4 5 8 11 12 13 13
14 12 12 12 10 9 7 5 5 6 5 5 5 5 3 3 2 2 2 1 1 2 3 2 2 2 2 2 3 2 4 4 3 4 5 4 7 6 7 9 12 14 14
12 12 11 11 10 9 7 7 6 6 6 5 6 5 4 3 3 2 2 1 2 2 1 1 1 1 2 2 2 2 3 3 4 4 5 5 5 9 9 9 10 13 14
10 10 10 9 10 9 8 7 7 7 7 6 7 7 5 4 3 2 2 2 2 1 1 1 1 2 2 2 2 2 2 2 4 4 5 5 6 6 8 10 10 12 14
10 10 9 8 9 9 8 7 7 7 7 7 7 6 6 5 4 2 2 3 1 1 1 2 2 3 2 3 3 2 2 2 2 3 4 5 5 6 6 7 10 10 12
10 10 9 9 9 10 8 8 7 7 7 7 6 6 6 6 5 3 3 3 1 1 1 2 2 2 3 3 4 2 2 1 2 1 3 3 3 4 5 4 7 10 13
11 11 11 11 10 9 8 9 9 8 7 6 6 7 7 6 5 2 2 3 1 2 2 2 1 0 2 3 3 2 2 2 1 1 2 3 2 2 2 3 4 5 7
12 12 12 12 11 11 9 8 7 7 7 6 6 7 7 6 6 4 2 2 2 2 2 2 2 2 2 2 4 3 2 4 2 2 1 2 3 2 1 0 0 2 4
13 13 12 12 12 11 11 9 7 7 6 6 7 6 7 7 6 4 4 2 2 1 2 0 1 2 2 2 3 4 3 1 1 3 1 2 3 3 2 2 1 1 2
14 13 12 12 12 12 12 11 11 9 7 7 7 7 7 7 7 6 5 4 2 1 1 2 1 1 2 2 1 2 3 4 4 1 3 2 1 1 3 3 2 1 1
15 14 13 13 13 12 12 11 11 9 7 6 7 8 7 7 7 6 6 5 4 2 2 1 1 1 1 2 2 1 1 1 4 5 2 2 2 1 1 2 2 2 2
14 14 14 14 13 13 13 12 11 9 8 8 8 8 8 6 6 7 6 5 5 3 3 3 2 2 1 1 2 2 2 2 3 3 4 4 4 2 2 2 3 2 2
Wind_Direction
157 150 147 151 147 143 139 137 135 134 133 130 128 126 123 120 117 113 111 105 101 97 93 92 91 89 88 87 90 94 96 100 104 108 110 110 111 114 117 128 135 116 117
152 149 149 153 149 146 142 137 135 132 131 129 126 124 122 120 117 113 109 105 101 96 94 92 90 88 89 89 90 94 98 102 108 113 121 119 115 117 121 124 103 115 123
150 148 154 154 151 148 144 138 134 132 130 128 126 124 123 120 118 115 110 105 101 97 95 91 88 87 87 87 89 93 98 102 108 125 159 132 119 120 120 113 109 122 125
150 151 157 153 153 149 144 139 136 135 132 130 128 125 123 120 118 115 110 105 101 99 98 95 91 88 85 84 87 92 99 103 116 183 155 116 122 120 125 124 123 127 127
150 151 149 155 155 152 148 143 141 139 137 134 132 129 125 121 117 114 110 108 103 99 97 97 94 91 87 84 86 91 98 110 156 219 101 106 111 123 130 131 130 130 130
151 154 150 158 156 154 150 148 145 143 141 138 135 133 130 126 120 116 113 111 106 103 100 96 95 92 88 83 83 89 103 141 216 117 112 120 116 130 136 137 136 135 134
155 154 150 158 156 155 153 151 149 146 142 140 138 136 132 127 124 122 116 113 111 109 108 105 100 96 89 83 81 85 108 234 243 112 126 117 113 133 144 144 141 139 138
155 154 149 157 157 156 154 152 150 147 145 143 142 142 138 132 127 124 123 121 120 117 115 114 110 104 94 82 81 85 102 271 183 132 133 118 118 145 152 152 150 147 144
158 154 155 161 159 157 153 152 150 149 148 146 145 143 141 137 133 132 131 133 131 125 124 126 124 119 111 93 79 81 69 293 266 144 151 129 136 158 163 160 161 159 156
160 159 160 163 161 163 159 154 152 150 151 150 148 148 146 149 151 153 172 144 146 149 144 144 149 153 143 142 136 146 232 251 246 178 161 133 148 173 176 175 172 171 167
162 162 164 161 161 164 161 154 158 157 156 160 159 156 180 183 167 175 125 124 152 156 154 170 178 179 202 185 180 208 237 246 229 234 161 123 162 188 190 186 184 181 178
166 168 165 166 162 166 162 156 166 166 160 176 158 167 182 156 162 139 116 137 156 165 178 175 196 203 230 215 180 206 237 243 254 221 146 134 179 200 203 196 192 190 189
169 171 167 166 165 169 160 162 162 157 155 164 155 163 154 158 161 170 157 165 181 203 215 173 213 237 245 276 280 244 257 260 254 246 145 142 195 213 211 204 200 199 198
172 173 171 166 169 170 165 161 162 163 160 156 149 171 154 151 156 139 171 160 222 253 287 264 251 250 266 258 266 274 260 258 264 267 140 138 211 224 217 208 207 208 206
174 175 171 170 168 165 163 171 160 157 151 147 146 143 155 160 149 125 89 33 342 350 250 271 281 277 272 258 258 263 277 272 272 272 224 158 209 230 222 212 209 212 213
178 175 172 174 169 166 165 166 153 153 145 145 142 135 149 136 125 124 126 80 37 9 14 339 338 294 287 295 274 278 278 283 271 276 273 211 199 216 223 218 214 212 214
176 172 171 174 170 168 166 168 159 159 153 144 134 135 140 136 125 121 107 108 49 36 41 346 327 298 284 277 279 288 274 279 284 277 277 276 237 207 211 219 220 215 212
169 164 171 176 168 167 166 167 160 157 151 147 144 141 137 125 126 130 105 81 58 13 1 11 315 314 331 307 300 300 292 267 264 269 265 259 268 254 212 206 215 216 215
172 166 170 171 166 166 163 160 154 149 150 148 147 145 141 139 132 127 89 76 68 26 5 337 30 330 335 331 298 269 287 275 279 272 280 272 263 260 253 196 204 214 218
176 174 173 170 168 165 159 153 152 152 155 155 151 144 148 143 140 132 115 97 37 51 39 35 21 359 326 323 307 323 296 313 294 320 286 277 271 264 256 247 221 215 213
179 176 176 173 170 167 165 167 165 166 164 160 158 152 155 149 145 150 121 122 70 71 38 26 341 345 339 338 292 258 179 152 69 40 357 337 344 313 279 242 240 243 213
185 179 176 176 175 178 174 169 169 160 165 159 156 153 163 162 165 167 156 157 122 114 101 58 1 334 11 357 321 289 224 173 159 88 52 41 17 7 1 74 250 232 253
185 183 181 178 177 181 171 164 157 155 165 165 168 170 173 175 178 174 177 177 163 217 115 96 336 340 345 14 3 328 310 348 109 145 94 55 28 14 22 41 41 1 271
185 182 181 175 177 177 174 177 178 183 183 180 180 173 174 182 184 183 188 188 204 216 153 210 89 318 310 334 76 11 354 353 309 245 178 141 88 16 12 351 14 37 351
184 181 179 177 179 179 184 183 188 192 186 176 177 167 182 180 189 191 194 196 200 213 191 227 170 285 291 324 331 328 341 272 275 291 294 300 275 281 342 316 335 337 358
183 181 179 179 181 182 187 189 195 192 186 179 184 178 189 185 191 192 198 199 205 207 194 204 208 208 288 327 315 316 307 306 307 304 296 288 296 297 308 299 280 293 313
Height
1540 1542 1543 1546 1549 1551 1553 1555 1557 1558 1559 1560 1561 1562 1562 1563 1563 1564 1564 1565 1565 1565 1566 1566 1566 1566 1567 1567 1567 1567 1568 1568 1568 1568 1569 1569 1569 1570 1570 1571 1572 1573 1573
1538 1541 1543 1547 1550 1552 1554 1556 1558 1559 1560 1562 1562 1563 1564 1564 1565 1565 1566 1566 1567 1567 1567 1567 1568 1568 1568 1568 1569 1569 1569 1569 1570 1570 1571 1571 1571 1572 1573 1573 1575 1575 1575
1538 1541 1544 1547 1550 1553 1556 1558 1559 1561 1562 1563 1564 1565 1565 1566 1567 1567 1568 1568 1568 1568 1569 1569 1569 1570 1570 1570 1570 1571 1571 1571 1572 1572 1573 1575 1574 1574 1575 1575 1576 1577 1578
1538 1542 1545 1548 1551 1554 1557 1559 1560 1562 1563 1564 1565 1566 1567 1568 1568 1569 1569 1569 1570 1570 1570 1571 1571 1571 1572 1572 1572 1572 1573 1573 1574 1574 1577 1578 1577 1576 1577 1577 1578 1579 1580
1539 1543 1545 1549 1552 1555 1558 1560 1561 1563 1564 1565 1566 1567 1568 1569 1570 1570 1571 1571 1571 1572 1572 1572 1573 1573 1573 1574 1574 1574 1575 1575 1576 1577 1579 1579 1579 1578 1578 1579 1580 1581 1582
1540 1544 1547 1550 1553 1556 1558 1560 1562 1564 1565 1566 1567 1568 1569 1570 1571 1572 1572 1572 1573 1573 1574 1574 1574 1575 1575 1575 1576 1576 1576 1577 1578 1580 1580 1581 1580 1579 1580 1581 1582 1582 1583
1542 1546 1548 1551 1554 1557 1559 1561 1563 1565 1566 1567 1568 1569 1570 1571 1572 1573 1573 1574 1574 1574 1575 1575 1576 1576 1576 1577 1577 1578 1578 1579 1581 1582 1582 1582 1581 1581 1582 1582 1583 1584 1585
1543 1547 1549 1551 1554 1557 1560 1562 1564 1565 1567 1568 1569 1570 1571 1572 1573 1574 1574 1575 1575 1576 1576 1576 1577 1577 1578 1578 1578 1579 1579 1580 1582 1583 1583 1583 1582 1582 1583 1584 1584 1585 1586
1545 1548 1550 1552 1555 1557 1560 1562 1564 1566 1567 1569 1570 1571 1572 1573 1574 1574 1575 1576 1576 1576 1577 1577 1578 1578 1578 1579 1579 1580 1580 1581 1583 1584 1584 1584 1583 1583 1584 1585 1585 1586 1587
1546 1548 1550 1554 1556 1558 1560 1562 1564 1566 1568 1569 1571 1572 1573 1574 1574 1575 1576 1576 1577 1577 1577 1578 1578 1578 1579 1579 1580 1580 1581 1582 1584 1585 1585 1584 1583 1584 1584 1585 1586 1587 1588
1545 1548 1551 1554 1556 1559 1562 1563 1565 1566 1568 1570 1571 1572 1574 1575 1576 1576 1577 1576 1577 1577 1578 1578 1578 1578 1579 1579 1579 1580 1581 1583 1585 1585 1585 1584 1584 1584 1585 1586 1586 1587 1589
1544 1547 1550 1553 1556 1559 1562 1563 1566 1568 1569 1571 1572 1573 1575 1575 1576 1577 1576 1576 1577 1577 1577 1578 1578 1578 1579 1580 1580 1580 1582 1583 1584 1584 1584 1583 1584 1584 1585 1586 1587 1588 1589
1543 1547 1550 1553 1555 1559 1561 1564 1566 1568 1569 1571 1572 1573 1574 1575 1576 1577 1577 1577 1577 1577 1578 1577 1578 1578 1579 1579 1580 1581 1581 1582 1583 1584 1583 1582 1583 1584 1585 1585 1587 1587 1588
1542 1546 1549 1552 1555 1558 1561 1563 1565 1568 1569 1571 1571 1572 1574 1575 1575 1576 1576 1577 1577 1577 1576 1577 1577 1577 1577 1577 1578 1578 1579 1580 1581 1582 1581 1580 1582 1583 1584 1585 1585 1587 1588
1541 1545 1548 1551 1554 1557 1559 1562 1565 1567 1569 1570 1571 1572 1573 1574 1575 1575 1575 1575 1576 1576 1576 1575 1576 1575 1575 1576 1576 1577 1577 1578 1578 1579 1580 1578 1579 1581 1582 1583 1584 1585 1586
1540 1544 1547 1550 1554 1556 1559 1561 1564 1566 1567 1570 1571 1571 1572 1574 1574 1574 1574 1574 1575 1575 1574 1574 1574 1574 1574 1574 1574 1574 1575 1576 1576 1576 1577 1577 1577 1579 1580 1581 1582 1583 1584
1539 1543 1546 1550 1553 1556 1559 1561 1563 1565 1567 1569 1570 1571 1572 1573 1573 1573 1574 1574 1574 1574 1573 1573 1573 1573 1573 1573 1573 1573 1573 1573 1574 1574 1575 1575 1576 1576 1577 1578 1580 1581 1582
1539 1542 1546 1550 1552 1555 1558 1560 1563 1565 1566 1568 1570 1570 1571 1572 1572 1573 1573 1573 1572 1573 1573 1572 1572 1573 1572 1572 1572 1572 1571 1571 1571 1572 1573 1573 1574 1575 1575 1575 1577 1578 1579
1537 1541 1545 1549 1551 1554 1557 1560 1562 1564 1566 1568 1569 1570 1571 1571 1571 1572 1572 1572 1572 1572 1572 1572 1572 1572 1572 1571 1571 1570 1570 1570 1570 1571 1571 1571 1571 1572 1573 1573 1573 1575 1576
1536 1540 1544 1547 1550 1554 1557 1559 1561 1563 1565 1567 1569 1569 1570 1570 1571 1572 1571 1571 1571 1571 1571 1570 1570 1569 1570 1570 1570 1569 1569 1569 1569 1569 1570 1570 1570 1570 1571 1571 1571 1572 1573
1534 1538 1542 1545 1549 1552 1555 1558 1560 1563 1565 1566 1568 1568 1569 1570 1570 1570 1571 1570 1570 1570 1570 1570 1570 1570 1570 1569 1569 1569 1569 1568 1568 1568 1568 1569 1569 1569 1569 1569 1569 1570 1571
1532 1535 1540 1544 1547 1551 1554 1557 1559 1562 1564 1566 1567 1567 1568 1569 1569 1570 1570 1570 1570 1569 1569 1569 1568 1570 1569 1568 1569 1568 1568 1569 1568 1568 1568 1568 1568 1568 1568 1568 1567 1568 1569
1531 1534 1539 1542 1546 1549 1552 1555 1558 1560 1562 1564 1565 1566 1567 1568 1568 1569 1569 1569 1569 1570 1569 1568 1568 1568 1569 1569 1568 1569 1568 1566 1568 1568 1567 1567 1567 1567 1567 1567 1566 1566 1567
1529 1533 1537 1540 1544 1547 1551 1554 1557 1559 1562 1563 1564 1565 1566 1566 1567 1567 1568 1568 1568 1569 1568 1568 1568 1568 1568 1569 1568 1567 1568 1568 1568 1567 1568 1567 1566 1566 1566 1566 1566 1565 1565
1528 1531 1535 1538 1542 1546 1549 1552 1555 1558 1560 1562 1563 1563 1564 1565 1565 1566 1566 1566 1566 1567 1567 1566 1566 1566 1567 1568 1568 1568 1568 1567 1568 1568 1567 1567 1566 1566 1565 1564 1564 1565 1564
1526 1529 1533 1536 1540 1543 1547 1550 1553 1556 1558 1560 1561 1561 1562 1563 1564 1564 1564 1565 1565 1566 1565 1565 1565 1565 1566 1565 1566 1567 1567 1567 1567 1567 1566 1566 1565 1565 1563 1563 1563 1563 1563